User: anonymous
Location: Vancouver
(49.2500°N, 123.1330°W)
Time: 02:50:20
(UTC-07:00)
Language:

AO-27 - Orbit

View from above orbital plane
View from above orbital plane
View from above satellite
View from above satellite

Ground track
Ground track

The orbit data is extracted from the following two-line orbital elements,

1 22825U 93061C   14233.83383676  .00000040  00000-0  32937-4 0  7423
2 22825 098.6667 179.5791 0009618 105.2272 308.0543 14.29736947 90166
Epoch (UTC): 21 August 2014 20:00:43
Eccentricity: 0.0009618
inclination: 98.6667°
perigee height: 786 km
apogee height: 799 km
right ascension of ascending node: 179.5791°
argument of perigee: 105.2272°
revolutions per day: 14.29736947
mean anomaly at epoch: 308.0543°
orbit number at epoch: 9016

The dashed part of the orbit path shows where the satellite is in the earth's shadow,  

DLR